Weather in Leninskiy

Russia / Kemerovo Oblast     56°01′35″N   85°04′02″E
temp.,
°C
wind,
m/s
gust,
m/s
humid.,
%
clouds,
%
prec.,
mm/h
press.,
hPa
HPBL,
m
24 june, thu
thu2401:00+8e3797100 0.8 1011122
04:00+8ese359813 0.0 100892
07:00+10e379761 0.0 1007234
10:00+15ene5678100 0.1 1005978
13:00+17ene5663100 0.4 10041315
16:00+17ne4672100 1.8 10031027
19:00+13ene3790100 14.4 1004221
22:00+11sse2296100 1.5 100560
25 june, fri
fri2501:00+9s2396100 1.6 100471
04:00+7s2496100 0.0 100474
07:00+9wsw2494100 0.0 1005164
10:00+13w2379100 0.0 1005770
13:00+14nw3379100 0.4 1006895
16:00+12nw4582100 0.5 1008497
19:00+10w3497100 1.2 1010181
22:00+10sw3895100 0.8 1011226
26 june, sat
sat2601:00+9sw3896100 0.9 1011200
04:00+8wsw3796100 0.0 1012159
07:00+9sw3895100 0.0 1012245
10:00+13wsw4782100 0.0 1012511
13:00+14wsw4785100 1.3 1012724
16:00+16w4777100 1.1 10121253
19:00+13nnw1393100 2.2 1012149
22:00+11w2295100 0.0 101331
27 june, sun
sun2701:00+10sw2395100 0.0 101349
04:00+9sw229689 0.0 101328
07:00+11sw259596 0.1 1014203
10:00+15wsw4687100 1.6 1013432
13:00+17w5680100 3.8 10131101
16:00+17w46837 2.4 1012890
19:00+16w36875 5.6 1012549
22:00+13sw229089 0.8 101325
28 june, mon
mon2801:00+11sw229410 1.1 101321
04:00+10ssw22945 0.2 101319
07:00+12ssw12935 0.2 1013100
10:00+17w12765 0.2 1013422
13:00+20ne225610 1.5 10131222
16:00+21wnw225652 0.1 10131190
19:00+20wnw236717 0.1 1013448
22:00+14n228164 0.1 101413